{"data":{"norad_id":65308,"epoch":"2026-09-21T22:02:46.704768Z","epoch_age_seconds":39660,"freshness":"FRESH","line1":"1 65308U 25187D   26264.91859612 -.00000105  00000+0  41757-4 0  9990","line2":"2 65308  50.0002 219.0517 0000779 358.8564   1.2307 13.29326860 52569","mean_motion":13.2932686,"eccentricity":7.79e-5,"inclination_deg":50.0002,"raan_deg":219.0517,"arg_perigee_deg":358.8564,"mean_anomaly_deg":1.2307,"bstar":4.1757e-5,"rev_number":5256,"period_min":108.3255024276,"perigee_km":1148.7169376959,"apogee_km":1149.8897128986,"semimajor_km":7527.4403252973,"source":"CELESTRAK","updated_at":"2026-09-22T09:00:30.257092Z"}}